Location: Broekland
(52.3610°N, 6.2005°E)
Time: 06:28:40
(UTC+00:00)

Cosmos 2322 Rocket - Pass Details

Date: 19 May 2025
Orbit: 832 x 850 km, 71.0° (Epoch: 14 June)

Event Time Altitude Azimuth Distance (km) Brightness Sun altitude
Rises 21:04:28 0° 328° (NNW) 3,421 7.6 -10.9°
Reaches altitude 10° 21:07:28 10° 343° (NNW) 2,480 6.0 -11.2°
Maximum altitude 21:11:57 23° 35° (NE) 1,715 4.1 -11.5°
Drops below altitude 10° 21:16:25 10° 87° (E) 2,463 4.3 -11.9°
Enters shadow 21:18:34 - 99° (E) 3,127 4.8 -12.1°
